Indiana, PA

1:20 PM EST on December 15, 2019 (GMT -0500)
Indiana County-Stewart

Weather History for KIDI - August, 2019

Change the Weather History Date:

Saturday, August 17, 2019

  Actual Average Record
Temperature  
Mean Temperature 72 °F -  
Max Temperature 84 °F 80 °F 99 °F (1988)
Min Temperature 60 °F 58 °F 45 °F (1976)
Cooling Degree Days 7    
Growing Degree Days 22 (Base 50)    
Moisture  
Dew Point 66 °F    
Average Humidity 79    
Maximum Humidity 100    
Minimum Humidity 55    
Precipitation  
Precipitation 0.00 in - - ()
Sea Level Pressure  
Sea Level Pressure 30.06 in    
Wind  
Wind Speed 3 mph (SW)    
Max Wind Speed 12 mph    
Max Gust Speed 18 mph    
Visibility 10 miles    
Events      
Averages and records for this station are not official NWS values.
T = Trace of Precipitation, MM = Missing Value Source: NWS Daily Summary

Daily Weather History Graph

Daily Weather History Graph

Search for Another Location

Airport or City:

Astronomy

Aug. 17, 2019 Rise Set
Actual Time 6:28 AM EDT 8:11 PM EDT
Civil Twilight 5:59 AM EDT 8:40 PM EDT
Nautical Twilight 5:24 AM EDT 9:16 PM EDT
Astronomical Twilight 4:46 AM EDT 9:53 PM EDT
Moon 9:38 PM EDT (8/17) 8:15 AM EDT (8/17)
Length of Visible Light 14h 41m
Length of Day
13h 43m
Waning Gibbous, 96% of the Moon is Illuminated
Aug 17
Waning Gibbous
Aug 23
Last Quarter
Aug 30
New
Sep 5
First Quarter
Sep 14
Full

Hourly Weather History & Observations

Time (EDT) Temp. Heat Index Dew Point Humidity Pressure Visibility Wind Dir Wind Speed Gust Speed Precip Events Conditions
12:15 AM 66.2 °F - 64.4 °F 94% 30.07 in 10.0 mi Calm Calm - N/A   Mostly Cloudy
12:35 AM 64.4 °F - 64.4 °F 100% 30.07 in 10.0 mi Calm Calm - N/A   Mostly Cloudy
12:55 AM 64.4 °F - 64.4 °F 100% 30.07 in 10.0 mi Calm Calm - N/A   Scattered Clouds
1:15 AM 64.4 °F - 64.4 °F 100% 30.07 in 10.0 mi Calm Calm - N/A   Scattered Clouds
1:35 AM 64.4 °F - 64.4 °F 100% 30.07 in 10.0 mi Calm Calm - N/A   Partly Cloudy
1:55 AM 64.4 °F - 62.6 °F 94% 30.07 in 10.0 mi Calm Calm - N/A   Partly Cloudy
2:15 AM 64.4 °F - 62.6 °F 94% 30.06 in 10.0 mi Calm Calm - N/A   Scattered Clouds
2:35 AM 62.6 °F - 62.6 °F 100% 30.06 in 10.0 mi Calm Calm - N/A   Scattered Clouds
2:55 AM 64.4 °F - 62.6 °F 94% 30.06 in 10.0 mi Calm Calm - N/A   Scattered Clouds
3:15 AM 64.4 °F - 64.4 °F 100% 30.06 in 10.0 mi Calm Calm - N/A   Scattered Clouds
3:35 AM 62.6 °F - 62.6 °F 100% 30.06 in 10.0 mi Calm Calm - N/A   Scattered Clouds
3:55 AM 62.6 °F - 62.6 °F 100% 30.06 in 10.0 mi Calm Calm - N/A   Partly Cloudy
4:15 AM 62.6 °F - 62.6 °F 100% 30.06 in 10.0 mi Calm Calm - N/A   Partly Cloudy
4:35 AM 62.6 °F - 62.6 °F 100% 30.06 in 9.0 mi Calm Calm - N/A   Partly Cloudy
4:55 AM 62.6 °F - 62.6 °F 100% 30.07 in 10.0 mi Calm Calm - N/A   Scattered Clouds
5:15 AM 62.6 °F - 62.6 °F 100% 30.07 in 10.0 mi Calm Calm - N/A   Scattered Clouds
5:35 AM 60.8 °F - 60.8 °F 100% 30.07 in 10.0 mi Calm Calm - N/A   Partly Cloudy
5:55 AM 62.6 °F - 60.8 °F 94% 30.06 in 10.0 mi Calm Calm - N/A   Partly Cloudy
6:15 AM 60.8 °F - 60.8 °F 100% 30.06 in 10.0 mi Calm Calm - N/A   Clear
6:35 AM 60.8 °F - 60.8 °F 100% 30.06 in 8.0 mi Calm Calm - N/A   Clear
6:55 AM 62.6 °F - 62.6 °F 100% 30.06 in 9.0 mi Calm Calm - N/A   Clear
7:15 AM 62.6 °F - 62.6 °F 100% 30.06 in 10.0 mi Calm Calm - N/A   Clear
7:35 AM 64.4 °F - 64.4 °F 100% 30.06 in 10.0 mi Calm Calm - N/A   Clear
7:55 AM 68.0 °F - 64.4 °F 88% 30.05 in 10.0 mi Calm Calm - N/A   Clear
8:15 AM 69.8 °F - 66.2 °F 88% 30.05 in 10.0 mi Variable 3.5 mph - N/A   Clear
8:35 AM 71.6 °F - 66.2 °F 83% 30.06 in 10.0 mi Calm Calm - N/A   Clear
8:55 AM 73.4 °F - 66.2 °F 78% 30.06 in 10.0 mi South 5.8 mph - N/A   Clear
9:15 AM 75.2 °F - 66.2 °F 73% 30.06 in 10.0 mi Variable 5.8 mph - N/A   Clear
9:35 AM 75.2 °F - 68.0 °F 78% 30.06 in 10.0 mi SSW 4.6 mph - N/A   Clear
9:55 AM 77.0 °F - 66.2 °F 69% 30.07 in 10.0 mi SSW 4.6 mph - N/A   Clear
10:15 AM 78.8 °F - 66.2 °F 65% 30.07 in 10.0 mi Variable 5.8 mph - N/A   Clear
10:35 AM 78.8 °F - 66.2 °F 65% 30.07 in 10.0 mi SW 9.2 mph - N/A   Clear
10:55 AM 80.6 °F 82.7 °F 66.2 °F 61% 30.08 in 10.0 mi SW 6.9 mph - N/A   Clear
11:15 AM 80.6 °F 82.7 °F 66.2 °F 61% 30.09 in 9.0 mi SSW 9.2 mph - N/A   Clear
11:35 AM 80.6 °F 82.7 °F 66.2 °F 61% 30.10 in 10.0 mi WSW 11.5 mph - N/A   Partly Cloudy
11:55 AM 80.6 °F 82.7 °F 66.2 °F 61% 30.09 in 10.0 mi West 11.5 mph - N/A   Mostly Cloudy
12:15 PM 80.6 °F 82.7 °F 66.2 °F 61% 30.09 in 10.0 mi SW 10.4 mph - N/A   Scattered Clouds
12:35 PM 80.6 °F 82.7 °F 66.2 °F 61% 30.07 in 10.0 mi WSW 10.4 mph - N/A   Partly Cloudy
12:55 PM 82.4 °F 84.6 °F 66.2 °F 58% 30.07 in 10.0 mi WSW 11.5 mph - N/A   Partly Cloudy
1:15 PM 82.4 °F 84.6 °F 66.2 °F 58% 30.08 in 10.0 mi SW 9.2 mph 18.4 mph N/A   Mostly Cloudy
1:35 PM 82.4 °F 84.6 °F 66.2 °F 58% 30.08 in 10.0 mi WSW 9.2 mph - N/A   Scattered Clouds
1:55 PM 82.4 °F 84.6 °F 66.2 °F 58% 30.06 in 10.0 mi WSW 9.2 mph - N/A   Partly Cloudy
2:15 PM 82.4 °F 84.6 °F 66.2 °F 58% 30.05 in 10.0 mi SSW 9.2 mph 15.0 mph N/A   Scattered Clouds
2:35 PM 84.2 °F 86.6 °F 66.2 °F 55% 30.06 in 10.0 mi WSW 11.5 mph - N/A   Scattered Clouds
2:55 PM 82.4 °F 84.6 °F 66.2 °F 58% 30.06 in 10.0 mi West 9.2 mph - N/A   Mostly Cloudy
3:15 PM 84.2 °F 86.6 °F 66.2 °F 55% 30.05 in 10.0 mi WSW 10.4 mph 17.3 mph N/A   Mostly Cloudy
3:35 PM 84.2 °F 86.6 °F 66.2 °F 55% 30.04 in 10.0 mi WSW 10.4 mph 18.4 mph N/A   Mostly Cloudy
3:55 PM 84.2 °F 86.6 °F 66.2 °F 55% 30.03 in 10.0 mi SW 10.4 mph - N/A   Scattered Clouds
4:15 PM 84.2 °F 86.6 °F 66.2 °F 55% 30.02 in 10.0 mi West 10.4 mph - N/A   Partly Cloudy
4:35 PM 84.2 °F 86.6 °F 66.2 °F 55% 30.03 in 10.0 mi WSW 11.5 mph - N/A   Partly Cloudy
4:55 PM 84.2 °F 86.6 °F 66.2 °F 55% 30.03 in 10.0 mi West 10.4 mph - N/A   Scattered Clouds
5:15 PM 82.4 °F 84.6 °F 66.2 °F 58% 30.03 in 10.0 mi West 9.2 mph - N/A   Scattered Clouds
5:35 PM 84.2 °F 87.3 °F 68.0 °F 58% 30.03 in 10.0 mi SW 10.4 mph - N/A   Mostly Cloudy
5:55 PM 84.2 °F 86.6 °F 66.2 °F 55% 30.04 in 10.0 mi WSW 9.2 mph 15.0 mph N/A   Scattered Clouds
6:15 PM 82.4 °F 84.6 °F 66.2 °F 58% 30.03 in 10.0 mi WSW 9.2 mph - N/A   Partly Cloudy
6:35 PM 82.4 °F 85.4 °F 68.0 °F 62% 30.04 in 10.0 mi SW 6.9 mph 13.8 mph N/A   Partly Cloudy
6:55 PM 80.6 °F 83.2 °F 68.0 °F 65% 30.04 in 10.0 mi WSW 5.8 mph - N/A   Clear
7:15 PM 80.6 °F 83.2 °F 68.0 °F 65% 30.04 in 10.0 mi WSW 4.6 mph - N/A   Clear
7:35 PM 80.6 °F 83.2 °F 68.0 °F 65% 30.04 in 10.0 mi WSW 4.6 mph - N/A   Scattered Clouds
7:55 PM 78.8 °F - 71.6 °F 78% 30.04 in 9.0 mi NNW 3.5 mph - N/A   Mostly Cloudy
8:15 PM 75.2 °F - 68.0 °F 78% 30.06 in 10.0 mi NE 5.8 mph 16.1 mph N/A   Overcast
8:35 PM 73.4 °F - 68.0 °F 83% 30.06 in 10.0 mi ESE 4.6 mph - N/A   Mostly Cloudy
8:55 PM 71.6 °F - 68.0 °F 88% 30.05 in 7.0 mi ESE 8.1 mph - N/A   Mostly Cloudy
9:15 PM 71.6 °F - 69.8 °F 94% 30.06 in 10.0 mi SE 5.8 mph - N/A   Mostly Cloudy
9:35 PM 71.6 °F - 68.0 °F 88% 30.07 in 10.0 mi East 5.8 mph - N/A   Scattered Clouds
9:55 PM 71.6 °F - 68.0 °F 88% 30.06 in 10.0 mi ESE 5.8 mph - N/A   Scattered Clouds
10:15 PM 69.8 °F - 68.0 °F 94% 30.06 in 10.0 mi East 3.5 mph - N/A   Mostly Cloudy
10:35 PM 69.8 °F - 68.0 °F 94% 30.05 in 10.0 mi Calm Calm - N/A   Scattered Clouds
10:55 PM 69.8 °F - 69.8 °F 100% 30.05 in 10.0 mi Calm Calm - N/A   Scattered Clouds
11:15 PM 69.8 °F - 68.0 °F 94% 30.06 in 10.0 mi Calm Calm - N/A   Mostly Cloudy
11:35 PM 69.8 °F - 68.0 °F 94% 30.05 in 10.0 mi Calm Calm - N/A   Mostly Cloudy
11:55 PM 69.8 °F - 68.0 °F 94% 30.05 in 10.0 mi Calm Calm - N/A   Scattered Clouds